Home > Weather > New Haven > Past weeks

Flag for U.S.A. Weather for the Past 2 Weeks in New Haven, Connecticut, U.S.A.

Now
34 °F

Clear.


Feels Like: 27 °F
Forecast: 21 / 38 °F
Wind: 9 mph from Northwest

Location: Tweed-New Haven Airport

Current Time: Feb 5, 2016 at 10:10:42 PM

Latest Report: Feb 5, 2016 at 8:53 PM


Visibility: 10 mi

Pressure: 30.25 "Hg

Humidity: 48%

Dew point: 16 °F

Location of New HavenLocation

Historic Weather in New Haven — Graph

°F

New Haven Temperature Yesterday

Maximum temperature yesterday: 54 °F (at 12:53 AM)
Minimum temperature yesterday: 41 °F (at 11:53 PM)
Average temperature yesterday: 49 °F

High & Low Weather Summary for the Past Weeks

 TemperatureHumidityPressure
High59 °F (Feb 1, 1:53 PM)100% (Jan 26, 7:53 AM)30.37 "Hg (Jan 26, 7:53 AM)
Low11 °F (Jan 25, 6:53 AM)31% (Jan 24, 2:53 PM)29.41 "Hg (Jan 29, 11:53 AM)
Average35 °F69%29.98 "Hg
* Reported Jan 21 8:53 PM — Feb 5 8:53 PM, New Haven, Weather by CustomWeather, © 2016

Note: Actual official high and low records may vary slightly from our data, if they occured in-between our weather recording intervals... More about our weather records

Advertising

New Haven Weather History for the Previous 24 Hours

 ConditionsComfort  
Time TempWeatherWind HumidityBarometerVisibility
8:53 PM
Fri, Feb 5
34 °FClear.9 mph48%30.25 "Hg10 mi
7:53 PM34 °FClear.10 mph46%30.23 "Hg10 mi
6:53 PM35 °FClear.9 mph48%30.19 "Hg10 mi
5:53 PM35 °FClear.7 mph50%30.16 "Hg10 mi
4:53 PM36 °FPassing clouds.10 mph44%30.12 "Hg10 mi
3:53 PM37 °FPassing clouds.10 mph52%30.07 "Hg10 mi
2:53 PM36 °FPassing clouds.13 mph67%30.04 "Hg10 mi
1:53 PM33 °FMore clouds than sun.9 mph85%30.04 "Hg10 mi
1:00 PM32 °FLight snow. Ice fog.20 mph92%30.00 "Hg1 mi
12:00 PM32 °FLight snow. Ice fog.14 mph100%30.02 "Hg1 mi
11:01 AM32 °FHeavy snow. Fog.14 mph100%30.01 "Hg0 mi
10:53 AM32 °FHeavy snow. Fog.13 mph96%30.01 "Hg0 mi
9:53 AM33 °FSnow. Fog.13 mph92%30.02 "Hg1 mi
9:02 AM33 °FHeavy snow. Fog.12 mph92%30.03 "Hg0 mi
8:53 AM33 °FSnow. Fog.13 mph92%30.02 "Hg1 mi
7:53 AM33 °FLight snow. Fog.8 mph96%30.08 "Hg1 mi
6:53 AM33 °FLight snow. Fog.14 mph92%30.03 "Hg1 mi
5:53 AM33 °FLight snow. Fog.12 mph92%30.04 "Hg1 mi
4:53 AM33 °FLight snow. Fog.15 mph92%30.01 "Hg2 mi
3:53 AM34 °FLight snow. Fog.12 mph85%30.05 "Hg2 mi
2:53 AM38 °FMostly cloudy.14 mph70%30.02 "Hg10 mi
1:53 AM41 °FOvercast.17 mph62%30.03 "Hg10 mi
12:53 AM41 °FLight rain. Overcast.8 mph65%30.05 "Hg10 mi
11:53 PM
Thu, Feb 4
41 °FMostly cloudy.8 mph65%30.05 "Hg10 mi
10:53 PM43 °FLight rain. Overcast.9 mph56%30.06 "Hg10 mi
Weather by CustomWeather, © 2016

See weather overviewHow to use our weather pages